Location: Champseau
(45.8333°N, 1.7667°E)
Time: 09:06:36
(UTC+00:00)

X-37B - Pass Details

Date: 28 September 2021
Orbit: 342 x 346 km, 45.0° (Epoch: 22 October)

Event Time Altitude Azimuth Distance (km) Brightness Sun altitude
Exits shadow 04:02:33 66° 131° (SE) 378 0.5 -18.9°
Drops below altitude 10° 04:05:13 10° 89° (E) 1,296 4.4 -18.4°
Sets 04:07:14 0° 87° (E) 2,137 5.9 -18.1°
